Location: Newark
(25.6108°S, 54.5803°W)
Time: 08:53:51
(UTC+00:00)

Tiros 1 - Pass Details

Date: 30 October 2020
Orbit: 630 x 664 km, 48.4° (Epoch: 29 November)

Event Time Altitude Azimuth Distance (km) Brightness Sun altitude
Rises 15:15:27 0° 355° (N) 2,937 10.7 78.4°
Reaches altitude 10° 15:18:35 10° 17° (NNE) 2,044 10.0 78.4°
Maximum altitude 15:21:24 16° 53° (NE) 1,705 9.7 78.5°
Drops below altitude 10° 15:24:15 10° 90° (E) 2,070 9.9 78.4°
Sets 15:27:26 0° 112° (ESE) 2,996 10.5 78.4°
